When you browse on this site, cookies collect data to enhance your experience and personalize the content and advertising you see.
Visit our Privacy Policy to learn more. By continuing to use the site, you agree to this use of cookies and data.
  • In Portugal
  • List of Countries
  • For 7 days
  • Water Temperature
  • Satellite Maps
  • Weather Map
  • Weather Widgets
  • user-avatar
    Login

    Hourly Weather Magdalenowo

    Today, 16 January, Wednesday

    Time Temperature Precipitation Wind Pressure Humidity
    00:00 -5°C° 0.3 mm 3 mps 733 mmHg 91%
    01:00 -4°C° 0.3 mm 2 mps 733 mmHg 94%
    02:00 -3°C° 0 mm 1 mps 733 mmHg 96%
    03:00 -3°C° 0.1 mm 1 mps 734 mmHg 96%
    04:00 -5°C° 0.1 mm 2 mps 735 mmHg 95%
    05:00 -5°C° 0.1 mm 2 mps 735 mmHg 95%
    06:00 -5°C° 0 mm 2 mps 736 mmHg 95%
    07:00 -5°C° 0 mm 2 mps 737 mmHg 94%
    08:00 -6°C° 0 mm 3 mps 738 mmHg 94%
    09:00 -6°C° 0 mm 3 mps 738 mmHg 93%
    10:00 -5°C° 0 mm 3 mps 739 mmHg 93%
    11:00 -4°C° 0 mm 2 mps 739 mmHg 93%
    12:00 -4°C° 0 mm 3 mps 740 mmHg 92%
    13:00 -2°C° 0 mm 3 mps 740 mmHg 91%
    14:00 -2°C° 0 mm 3 mps 740 mmHg 90%
    15:00 -2°C° 0 mm 3 mps 740 mmHg 91%
    16:00 -4°C° 0 mm 3 mps 739 mmHg 93%
    17:00 -4°C° 0 mm 3 mps 739 mmHg 95%
    18:00 -2°C° 0.1 mm 3 mps 739 mmHg 95%
    19:00 -2°C° 0.1 mm 4 mps 739 mmHg 95%
    20:00 -1°C° 0.1 mm 4 mps 739 mmHg 96%
    21:00 -1°C° 0.1 mm 5 mps 738 mmHg 96%
    22:00 -1°C° 0.1 mm 5 mps 738 mmHg 97%
    23:00 0°C° 0.1 mm 5 mps 738 mmHg 97%

    Tomorrow, 17 January, Thursday

    Time Temperature Precipitation Wind Pressure Humidity
    00:00 0°C° 0.1 mm 5 mps 737 mmHg 97%
    01:00 -1°C° 0.1 mm 6 mps 737 mmHg 97%
    02:00 -1°C° 0.1 mm 6 mps 737 mmHg 97%
    03:00 -1°C° 0.2 mm 6 mps 736 mmHg 97%
    04:00 -1°C° 0.2 mm 6 mps 736 mmHg 96%
    05:00 -1°C° 0.2 mm 6 mps 736 mmHg 96%
    06:00 -1°C° 0.2 mm 7 mps 735 mmHg 94%
    07:00 -2°C° 0.2 mm 7 mps 734 mmHg 92%
    08:00 -2°C° 0.2 mm 7 mps 734 mmHg 91%
    09:00 -2°C° 0 mm 7 mps 734 mmHg 90%
    10:00 -2°C° 0 mm 7 mps 733 mmHg 90%
    11:00 -2°C° 0 mm 7 mps 733 mmHg 89%
    12:00 -2°C° 0.1 mm 7 mps 733 mmHg 89%
    13:00 -2°C° 0.1 mm 7 mps 733 mmHg 89%
    14:00 -1°C° 0.1 mm 7 mps 733 mmHg 89%
    15:00 -1°C° 0.1 mm 7 mps 733 mmHg 89%
    16:00 -1°C° 0.1 mm 7 mps 734 mmHg 89%
    17:00 -1°C° 0.1 mm 6 mps 734 mmHg 90%
    18:00 -1°C° 0 mm 6 mps 734 mmHg 90%
    19:00 -1°C° 0 mm 6 mps 735 mmHg 90%
    20:00 -1°C° 0 mm 6 mps 735 mmHg 90%
    21:00 -2°C° 0 mm 6 mps 735 mmHg 89%
    22:00 -2°C° 0 mm 6 mps 735 mmHg 89%
    23:00 -2°C° 0 mm 6 mps 735 mmHg 88%

    Day after tomorrow, 18 January, Friday

    Time Temperature Precipitation Wind Pressure Humidity
    00:00 -3°C° 0 mm 6 mps 735 mmHg 89%
    01:00 -2°C° 0 mm 5 mps 735 mmHg 90%
    02:00 -2°C° 0 mm 5 mps 736 mmHg 92%
    03:00 -2°C° 0.2 mm 4 mps 735 mmHg 93%
    04:00 -2°C° 0.2 mm 4 mps 735 mmHg 94%
    05:00 -1°C° 0.2 mm 3 mps 735 mmHg 95%
    06:00 -1°C° 0.4 mm 3 mps 735 mmHg 94%
    07:00 -2°C° 0.4 mm 4 mps 735 mmHg 93%
    08:00 -2°C° 0.4 mm 4 mps 735 mmHg 92%
    09:00 -2°C° 0.5 mm 5 mps 736 mmHg 92%
    10:00 -2°C° 0.5 mm 5 mps 737 mmHg 92%
    11:00 -4°C° 0.5 mm 6 mps 738 mmHg 92%
    12:00 -4°C° 0.3 mm 5 mps 739 mmHg 88%
    13:00 -5°C° 0.3 mm 5 mps 740 mmHg 84%
    14:00 -6°C° 0.3 mm 5 mps 741 mmHg 80%
    15:00 -5°C° 0 mm 4 mps 742 mmHg 83%
    16:00 -5°C° 0 mm 4 mps 743 mmHg 85%
    17:00 -6°C° 0 mm 3 mps 744 mmHg 88%
    18:00 -6°C° 0 mm 3 mps 745 mmHg 88%
    19:00 -7°C° 0 mm 4 mps 745 mmHg 88%
    20:00 -5°C° 0 mm 4 mps 746 mmHg 88%
    21:00 -7°C° 0 mm 4 mps 746 mmHg 86%
    22:00 -7°C° 0 mm 4 mps 747 mmHg 85%
    23:00 -7°C° 0 mm 4 mps 747 mmHg 84%

    19 January, Saturday

    Time Temperature Precipitation Wind Pressure Humidity
    00:00 -7°C° 0 mm 4 mps 748 mmHg 84%
    01:00 -7°C° 0 mm 4 mps 748 mmHg 84%
    02:00 -8°C° 0 mm 4 mps 749 mmHg 85%
    03:00 -8°C° 0 mm 4 mps 749 mmHg 86%
    04:00 -8°C° 0 mm 4 mps 749 mmHg 88%
    05:00 -8°C° 0 mm 4 mps 749 mmHg 90%
    06:00 -8°C° 0 mm 4 mps 749 mmHg 92%
    07:00 -8°C° 0 mm 4 mps 749 mmHg 93%
    08:00 -8°C° 0 mm 4 mps 749 mmHg 95%
    09:00 -7°C° 0 mm 4 mps 750 mmHg 94%
    10:00 -7°C° 0 mm 4 mps 750 mmHg 92%
    11:00 -5°C° 0 mm 4 mps 750 mmHg 91%
    12:00 -5°C° 0 mm 4 mps 750 mmHg 90%
    13:00 -4°C° 0 mm 4 mps 750 mmHg 89%
    14:00 -3°C° 0 mm 4 mps 750 mmHg 87%
    15:00 -3°C° 0 mm 4 mps 750 mmHg 88%
    16:00 -3°C° 0 mm 4 mps 750 mmHg 88%
    17:00 -3°C° 0 mm 4 mps 750 mmHg 88%
    18:00 -4°C° 0 mm 4 mps 750 mmHg 89%
    19:00 -4°C° 0 mm 4 mps 750 mmHg 91%
    20:00 -5°C° 0 mm 3 mps 750 mmHg 92%
    21:00 -4°C° 0 mm 3 mps 751 mmHg 93%
    22:00 -4°C° 0 mm 3 mps 751 mmHg 93%
    23:00 -4°C° 0 mm 3 mps 751 mmHg 93%

    20 January, Sunday

    Time Temperature Precipitation Wind Pressure Humidity
    00:00 -4°C° 0 mm 2 mps 751 mmHg 94%
    01:00 -4°C° 0 mm 2 mps 751 mmHg 94%
    02:00 -4°C° 0 mm 2 mps 751 mmHg 95%
    03:00 -5°C° 0 mm 2 mps 750 mmHg 94%
    04:00 -5°C° 0 mm 2 mps 750 mmHg 94%
    05:00 -5°C° 0 mm 2 mps 750 mmHg 94%
    06:00 -5°C° 0 mm 2 mps 750 mmHg 94%
    07:00 -6°C° 0 mm 2 mps 750 mmHg 94%
    08:00 -6°C° 0 mm 2 mps 750 mmHg 94%
    09:00 -6°C° 0 mm 2 mps 750 mmHg 93%
    10:00 -5°C° 0 mm 2 mps 750 mmHg 93%
    11:00 -6°C° 0 mm 3 mps 750 mmHg 92%
    12:00 -5°C° 0 mm 3 mps 749 mmHg 91%
    13:00 -5°C° 0 mm 3 mps 749 mmHg 91%
    14:00 -4°C° 0 mm 3 mps 749 mmHg 91%
    15:00 -4°C° 0 mm 3 mps 749 mmHg 92%
    16:00 -5°C° 0 mm 3 mps 748 mmHg 93%
    17:00 -6°C° 0 mm 3 mps 748 mmHg 94%
    18:00 -5°C° 0 mm 3 mps 748 mmHg 94%
    19:00 -5°C° 0 mm 3 mps 748 mmHg 94%
    20:00 -5°C° 0 mm 4 mps 748 mmHg 94%
    21:00 -5°C° 0.2 mm 4 mps 748 mmHg 93%
    22:00 -5°C° 0.2 mm 4 mps 748 mmHg 93%
    23:00 -6°C° 0.2 mm 5 mps 747 mmHg 93%

    21 January, Monday

    Time Temperature Precipitation Wind Pressure Humidity
    00:00 -5°C° 0.4 mm 4 mps 747 mmHg 92%
    01:00 -5°C° 0.4 mm 4 mps 747 mmHg 91%
    02:00 -5°C° 0.4 mm 3 mps 747 mmHg 91%
    03:00 -7°C° 0 mm 4 mps 747 mmHg 90%
    04:00 -8°C° 0 mm 4 mps 748 mmHg 88%
    05:00 -9°C° 0 mm 4 mps 748 mmHg 87%
    06:00 -8°C° 0 mm 5 mps 748 mmHg 87%
    07:00 -8°C° 0 mm 5 mps 749 mmHg 87%
    08:00 -8°C° 0 mm 6 mps 750 mmHg 86%
    09:00 -8°C° 0 mm 5 mps 750 mmHg 86%
    10:00 -8°C° 0 mm 5 mps 751 mmHg 86%
    11:00 -8°C° 0 mm 5 mps 752 mmHg 86%
    12:00 -8°C° 0 mm 4 mps 752 mmHg 85%
    13:00 -7°C° 0 mm 4 mps 753 mmHg 83%
    14:00 -7°C° 0 mm 4 mps 753 mmHg 81%
    15:00 -7°C° 0 mm 3 mps 753 mmHg 84%
    16:00 -8°C° 0 mm 3 mps 754 mmHg 86%
    17:00 -7°C° 0 mm 2 mps 754 mmHg 88%
    18:00 -7°C° 0 mm 2 mps 754 mmHg 89%
    19:00 -8°C° 0 mm 3 mps 754 mmHg 90%
    20:00 -8°C° 0 mm 3 mps 754 mmHg 91%
    21:00 -8°C° 0 mm 3 mps 754 mmHg 90%
    22:00 -8°C° 0 mm 3 mps 754 mmHg 89%
    23:00 -8°C° 0 mm 3 mps 755 mmHg 88%
    Show more